Probability
0 0 0 0 0 0 0 0 0 0 0 0 0 0 0 0 0 0 0 0 0 0 0 0 0 0 0 0 0 6 3 3 3 3 3 3 6 3 13 10 6 10 13
0 0 0 0 0 0 0 0 0 0 0 0 0 0 0 0 0 0 0 0 0 0 0 0 0 0 3 3 0 0 6 3 0 0 3 0 3 6 6 10 10 6 13
0 0 0 0 0 0 0 0 0 0 0 0 0 0 0 0 0 0 0 0 0 0 0 0 0 0 0 3 0 0 0 3 0 0 3 0 0 0 6 6 10 13 13
0 0 3 0 0 0 0 0 0 0 0 0 0 0 0 0 0 0 0 0 0 0 0 0 0 0 0 0 0 3 3 6 0 0 3 0 0 0 6 6 6 13 13
0 0 0 0 0 0 3 0 0 0 0 0 0 0 0 0 0 0 0 0 0 0 0 0 0 0 0 0 0 3 3 6 3 3 3 0 0 0 3 3 6 3 3
0 0 0 0 0 0 0 0 0 0 0 0 0 0 0 0 0 0 0 0 0 0 0 0 0 0 0 0 0 0 0 0 6 3 3 3 0 0 0 3 0 3 3
0 0 0 0 0 0 0 0 0 0 0 0 0 0 0 0 0 0 0 0 0 0 0 0 0 0 0 0 0 0 0 0 0 3 3 3 0 0 0 0 0 0 0
0 0 0 0 0 0 0 0 0 0 0 0 0 0 0 0 0 0 0 0 0 0 0 0 0 0 0 0 0 0 0 0 0 0 0 0 0 0 0 0 0 0 0
0 0 0 0 0 0 0 0 0 0 0 0 0 0 0 0 0 0 0 0 0 0 0 0 0 0 0 0 0 0 0 0 0 0 0 0 0 0 0 0 0 0 0
0 0 0 0 0 0 0 0 0 0 0 0 0 0 0 0 0 0 0 0 0 0 0 0 0 0 0 0 0 0 0 0 0 0 0 0 0 0 0 0 0 0 0
0 0 0 0 0 0 0 0 0 0 0 0 0 0 0 0 0 0 0 0 0 0 0 0 0 0 0 0 0 0 0 0 0 0 0 0 0 0 0 0 0 0 0
0 0 0 0 0 0 0 0 0 0 0 0 0 0 0 0 0 0 0 0 0 0 0 0 0 0 0 0 0 0 0 0 0 0 0 0 0 0 0 0 0 0 0
0 0 0 0 0 0 0 0 0 0 0 0 0 0 0 0 0 0 0 0 0 0 0 0 0 0 0 0 0 0 0 0 0 0 0 0 0 0 0 0 0 0 0
0 0 0 0 0 0 0 0 0 0 0 0 0 0 0 0 0 0 0 0 0 0 0 0 0 0 0 0 0 0 0 0 0 0 0 0 0 0 0 0 0 0 0
0 0 0 0 0 0 0 0 0 0 0 0 0 0 0 0 0 0 0 0 0 0 0 0 0 0 0 0 0 0 0 0 0 0 0 0 0 0 0 0 0 0 0
0 0 0 0 0 0 0 0 0 0 0 0 0 0 0 0 0 0 0 0 0 0 0 0 0 0 0 0 0 0 0 0 0 0 0 0 0 0 0 0 0 0 0
0 0 0 0 0 0 0 0 0 0 0 0 0 0 0 0 0 0 0 0 0 0 0 0 0 0 0 0 0 0 0 0 0 0 0 0 0 0 0 0 0 0 0
0 0 0 0 0 0 0 0 0 0 0 0 0 0 0 0 0 0 0 0 0 0 0 0 0 0 0 0 0 0 0 0 0 0 0 0 0 0 0 0 0 0 0
0 0 0 0 0 0 0 0 0 0 0 0 0 0 0 0 0 0 0 0 0 0 0 0 0 0 0 0 0 0 0 0 0 0 0 0 0 0 0 0 3 3 3
0 0 0 0 0 0 0 0 0 0 0 0 0 0 0 0 0 0 0 0 0 0 0 0 0 0 0 0 0 0 0 0 0 0 0 0 0 0 0 0 3 3 3
0 0 0 0 0 0 0 0 0 0 0 0 0 0 0 0 0 0 0 0 0 0 0 0 0 0 0 0 0 0 0 0 0 0 0 0 0 0 0 0 0 3 3
0 0 0 0 0 0 0 0 0 0 0 0 0 0 0 0 0 0 0 0 0 0 0 0 0 0 0 0 0 0 0 0 0 0 0 0 0 0 0 0 0 0 0
0 0 0 0 0 0 0 0 0 0 0 0 0 0 0 0 0 0 0 0 0 0 0 0 0 0 0 0 0 0 0 0 0 0 0 0 0 0 0 0 0 0 0
0 0 0 0 0 0 0 0 0 0 0 0 0 0 0 0 0 0 0 0 0 0 0 0 0 0 0 0 0 0 0 0 0 0 0 0 0 0 0 0 0 0 0
0 0 0 0 0 0 0 0 0 0 0 0 0 0 0 0 0 0 0 0 0 0 0 0 0 0 0 0 0 0 0 0 0 0 0 0 0 0 0 0 0 0 0
0 0 0 0 0 0 0 0 0 0 0 0 0 0 0 0 0 0 0 0 0 0 0 0 0 0 0 0 0 0 0 0 0 0 0 0 0 0 0 0 0 0 0
Height
5883 5884 5884 5885 5885 5885 5885 5885 5885 5885 5885 5884 5884 5883 5882 5881 5880 5879 5878 5876 5875 5873 5871 5870 5868 5865 5863 5861 5859 5856 5854 5853 5851 5850 5849 5847 5846 5845 5845 5845 5845 5846 5846
5881 5883 5883 5884 5884 5884 5884 5884 5884 5884 5883 5883 5883 5882 5882 5881 5880 5878 5877 5876 5875 5873 5871 5870 5868 5866 5864 5861 5859 5857 5854 5853 5851 5850 5849 5848 5847 5846 5845 5845 5845 5845 5846
5880 5881 5882 5883 5883 5883 5883 5883 5882 5882 5882 5882 5882 5881 5880 5880 5879 5878 5877 5875 5874 5873 5871 5870 5868 5866 5864 5862 5859 5857 5855 5853 5852 5850 5849 5848 5847 5846 5845 5845 5845 5845 5845
5879 5880 5881 5881 5881 5881 5881 5881 5881 5881 5880 5880 5880 5880 5879 5879 5878 5877 5876 5875 5874 5872 5871 5870 5868 5866 5864 5862 5860 5857 5855 5853 5852 5850 5849 5848 5846 5846 5845 5845 5844 5844 5845
5878 5879 5879 5879 5879 5879 5879 5879 5879 5879 5879 5879 5878 5878 5877 5877 5876 5875 5875 5874 5873 5872 5871 5869 5868 5866 5864 5862 5860 5858 5855 5853 5852 5850 5849 5847 5846 5846 5845 5845 5844 5844 5844
5876 5877 5877 5877 5877 5877 5877 5877 5877 5877 5877 5877 5876 5876 5876 5875 5875 5874 5874 5873 5872 5871 5870 5869 5867 5866 5864 5862 5860 5857 5855 5853 5851 5850 5848 5847 5846 5845 5845 5844 5843 5843 5843
5874 5875 5875 5875 5875 5875 5875 5875 5875 5875 5875 5875 5875 5874 5874 5874 5873 5873 5872 5872 5871 5870 5869 5868 5866 5865 5863 5861 5859 5857 5855 5853 5851 5849 5848 5846 5845 5844 5844 5843 5842 5842 5841
5872 5873 5873 5873 5873 5873 5872 5872 5872 5873 5872 5872 5872 5872 5872 5871 5871 5871 5871 5870 5870 5869 5868 5867 5866 5864 5862 5860 5858 5856 5854 5852 5850 5848 5847 5845 5844 5843 5842 5841 5841 5840 5840
5870 5870 5871 5871 5871 5870 5870 5870 5870 5870 5870 5870 5870 5869 5869 5869 5869 5869 5869 5869 5869 5868 5867 5866 5865 5863 5861 5859 5857 5855 5853 5851 5849 5847 5845 5843 5842 5840 5839 5839 5838 5838 5837
5868 5868 5869 5869 5868 5868 5868 5868 5867 5867 5867 5867 5867 5867 5867 5867 5867 5868 5868 5868 5867 5867 5866 5864 5863 5861 5859 5857 5855 5853 5851 5849 5847 5845 5843 5841 5839 5838 5836 5835 5834 5833 5833
5866 5866 5866 5867 5866 5866 5866 5866 5865 5865 5864 5864 5864 5865 5865 5865 5866 5866 5866 5866 5865 5865 5864 5862 5861 5859 5857 5855 5853 5851 5849 5847 5844 5842 5840 5838 5836 5834 5833 5831 5830 5828 5828
5863 5864 5864 5865 5864 5864 5864 5864 5864 5863 5863 5863 5863 5863 5863 5864 5864 5864 5864 5863 5863 5862 5861 5860 5858 5856 5854 5852 5850 5848 5846 5844 5841 5839 5837 5834 5832 5830 5828 5826 5824 5823 5822
5861 5861 5862 5862 5862 5862 5862 5862 5862 5861 5861 5861 5861 5861 5861 5862 5862 5862 5861 5861 5860 5859 5857 5856 5855 5853 5851 5849 5847 5845 5842 5840 5837 5835 5832 5830 5827 5825 5822 5820 5818 5817 5815
5858 5859 5859 5860 5860 5860 5860 5860 5860 5859 5859 5859 5859 5859 5860 5860 5859 5859 5858 5857 5857 5855 5854 5852 5851 5849 5847 5845 5842 5840 5838 5835 5832 5830 5827 5824 5821 5819 5816 5814 5811 5809 5808
5855 5856 5856 5857 5857 5857 5857 5858 5858 5857 5857 5857 5857 5857 5857 5857 5856 5856 5855 5854 5853 5851 5850 5848 5846 5844 5842 5840 5838 5835 5833 5830 5827 5824 5821 5818 5814 5811 5809 5806 5804 5801 5799
5852 5853 5853 5853 5854 5854 5855 5855 5855 5855 5855 5855 5855 5855 5854 5853 5853 5852 5851 5850 5849 5847 5845 5843 5841 5839 5837 5834 5832 5829 5826 5823 5820 5817 5814 5810 5807 5804 5800 5797 5794 5792 5789
5849 5849 5849 5850 5850 5851 5851 5852 5852 5852 5852 5852 5851 5851 5850 5849 5849 5848 5846 5845 5844 5842 5840 5838 5836 5834 5831 5828 5826 5823 5819 5816 5813 5809 5805 5802 5798 5795 5791 5788 5785 5782 5778
5845 5845 5845 5846 5847 5847 5848 5848 5848 5848 5848 5848 5848 5847 5846 5845 5844 5843 5841 5840 5838 5837 5834 5832 5830 5827 5824 5822 5818 5815 5812 5808 5804 5800 5796 5792 5789 5785 5781 5778 5775 5771 5767
5842 5842 5842 5842 5843 5843 5844 5844 5844 5844 5844 5844 5843 5842 5841 5840 5839 5837 5836 5834 5832 5830 5828 5825 5823 5820 5817 5814 5810 5807 5803 5799 5795 5791 5787 5783 5779 5775 5771 5767 5763 5759 5755
5838 5838 5838 5839 5839 5839 5839 5840 5840 5840 5839 5839 5838 5837 5836 5834 5833 5831 5830 5828 5826 5823 5821 5818 5815 5812 5809 5805 5802 5798 5794 5790 5786 5782 5778 5773 5769 5765 5760 5755 5751 5747 5742
5834 5834 5834 5834 5835 5835 5835 5835 5835 5834 5834 5833 5832 5831 5830 5828 5827 5825 5822 5820 5818 5816 5813 5810 5807 5803 5800 5796 5792 5788 5784 5780 5776 5772 5768 5763 5758 5753 5748 5743 5738 5733 5729
5829 5829 5829 5829 5829 5830 5830 5829 5829 5828 5827 5827 5826 5824 5823 5821 5819 5817 5815 5812 5810 5807 5804 5801 5798 5794 5790 5787 5782 5778 5774 5769 5765 5761 5756 5752 5747 5741 5736 5731 5725 5720 5715
5823 5823 5823 5823 5823 5823 5823 5823 5822 5822 5821 5820 5818 5817 5815 5813 5811 5809 5807 5804 5801 5798 5795 5792 5789 5785 5781 5776 5772 5768 5763 5758 5754 5749 5745 5739 5734 5729 5723 5718 5712 5706 5700
5817 5817 5817 5817 5817 5817 5816 5816 5815 5814 5813 5812 5810 5809 5807 5805 5803 5800 5798 5795 5792 5789 5785 5782 5778 5775 5770 5766 5761 5757 5752 5747 5742 5737 5732 5727 5721 5715 5710 5704 5697 5691 5685
5811 5811 5811 5811 5810 5810 5809 5808 5807 5806 5805 5804 5802 5800 5798 5796 5793 5791 5788 5785 5782 5778 5775 5771 5768 5764 5760 5755 5749 5744 5740 5734 5729 5724 5719 5713 5708 5702 5695 5689 5682 5676 5670
5804 5804 5803 5803 5802 5802 5801 5800 5799 5797 5796 5794 5793 5791 5788 5786 5783 5781 5778 5775 5772 5768 5764 5760 5756 5751 5747 5742 5737 5732 5727 5721 5716 5710 5705 5699 5693 5687 5681 5674 5668 5661 5655
Wind_Speed
7 6 6 4 4 3 2 2 2 2 2 2 2 3 4 4 5 6 7 8 8 9 10 11 12 12 12 12 12 11 10 10 9 8 8 6 6 4 3 1 3 5 6
7 6 6 5 4 3 3 2 2 2 2 2 2 3 3 4 5 6 7 8 8 9 10 10 11 12 13 13 13 12 11 10 9 9 8 7 6 5 3 2 2 4 6
7 6 6 5 4 4 3 3 2 2 2 2 2 3 3 4 4 5 6 7 8 9 9 10 11 12 13 14 14 13 12 11 10 9 8 7 6 5 4 3 2 3 4
7 6 6 6 5 5 4 4 3 3 3 3 3 3 3 3 4 5 5 6 7 8 9 10 11 12 13 13 14 14 13 11 11 10 9 8 7 6 5 4 3 4 4
7 7 7 6 6 6 5 5 4 4 4 4 3 3 3 3 4 4 5 6 7 8 9 10 10 11 12 13 13 14 13 12 11 11 10 8 7 7 5 5 4 5 5
8 7 7 6 6 6 6 6 5 5 5 4 4 3 3 3 3 4 4 5 6 7 9 10 10 11 11 12 13 13 12 12 11 11 10 9 8 8 7 6 5 6 6
8 7 7 7 7 7 7 6 6 6 5 5 4 4 3 3 4 4 4 5 6 7 9 10 11 11 12 12 13 12 12 12 12 11 10 10 9 9 8 8 7 8 8
8 8 7 7 7 7 6 6 6 6 6 6 5 4 4 4 4 4 4 5 6 7 9 10 11 11 12 12 13 12 12 12 12 12 11 11 10 10 10 10 10 10 10
8 8 8 7 7 6 6 6 6 6 6 6 5 5 4 4 4 4 4 5 6 8 10 11 11 11 12 12 13 12 13 13 13 13 13 12 12 12 12 12 12 13 13
8 8 8 7 7 6 6 6 6 6 6 6 5 5 4 4 4 4 5 6 7 8 10 11 11 12 13 13 13 14 14 14 14 14 15 14 14 13 13 14 14 15 15
8 7 7 6 6 6 6 6 6 5 6 6 6 6 5 4 4 5 6 7 8 10 10 11 12 13 14 14 15 16 16 16 16 16 16 16 16 16 15 16 16 17 18
8 8 7 7 7 7 7 7 7 6 5 5 6 6 5 5 6 7 8 9 10 11 12 13 14 14 15 16 16 17 17 17 18 18 18 18 18 18 18 19 19 20 20
9 9 9 8 9 8 8 8 7 7 6 6 7 7 7 7 8 9 10 11 12 13 14 14 15 16 17 17 18 18 18 19 20 20 20 20 21 21 21 21 22 22 23
10 10 10 10 10 10 9 8 8 8 7 7 8 8 8 8 9 10 11 12 14 15 15 16 17 18 18 19 19 20 20 21 22 22 23 23 23 24 24 24 24 25 25
11 11 11 11 11 11 11 10 10 9 9 9 9 9 10 10 11 11 13 14 15 16 17 18 19 20 20 21 21 22 23 24 24 25 26 26 26 27 27 27 27 28 28
12 12 13 12 12 12 12 12 12 11 11 11 11 12 12 13 13 14 15 16 17 18 18 19 20 22 23 24 24 25 26 26 27 28 29 29 29 29 29 30 30 31 31
13 13 13 13 13 13 13 13 13 13 13 12 13 14 14 15 15 16 17 18 19 19 20 21 22 24 25 26 26 27 28 29 30 30 31 31 31 31 32 32 33 33 34
14 14 13 14 13 14 14 14 14 14 14 15 14 15 16 16 17 18 19 20 22 23 23 25 26 26 27 28 29 30 30 31 32 33 33 33 33 33 34 34 35 36 37
14 14 14 14 14 14 14 15 15 15 16 16 17 17 18 18 20 21 22 23 24 26 27 28 28 29 29 31 32 32 33 34 34 34 34 35 35 36 37 37 38 38 39
14 14 14 14 15 15 16 16 16 17 18 18 18 19 20 21 23 24 25 26 27 28 29 30 30 31 32 34 35 35 36 36 36 35 36 37 38 39 39 40 41 41 40
16 16 16 16 16 17 17 18 19 19 20 21 22 22 23 25 26 27 28 29 30 31 31 32 33 34 35 36 37 38 38 38 38 38 38 40 41 41 42 42 43 43 43
17 18 18 18 19 19 20 20 21 22 23 24 25 26 27 28 29 30 31 32 32 33 33 34 35 36 37 38 39 39 39 40 40 40 41 42 43 43 43 45 45 45 45
19 19 20 20 21 21 22 23 24 25 25 26 28 28 29 30 31 32 33 33 34 35 35 36 37 38 39 40 41 41 41 42 42 43 44 44 45 45 46 47 47 48 47
21 21 22 22 23 24 25 25 26 27 28 29 30 31 32 33 34 34 35 36 36 37 37 38 39 40 41 42 43 43 44 44 45 46 46 46 47 48 49 49 49 50 49
23 23 23 24 25 26 27 28 28 29 30 31 32 33 34 35 36 37 37 38 38 39 40 40 41 42 43 44 45 46 46 47 47 48 48 48 49 50 51 51 51 50 48
25 25 25 26 27 28 29 30 31 32 33 33 34 35 36 37 38 38 38 39 40 41 41 42 43 44 45 46 47 47 48 48 48 49 49 50 51 52 52 52 52 51 50
Wind_Direction
217 223 230 238 242 247 254 266 286 310 325 338 355 0 3 8 8 8 9 9 10 12 14 15 15 13 13 12 11 9 9 9 9 9 9 8 8 7 359 301 236 228 224
217 224 232 235 236 242 252 260 281 297 302 314 340 349 352 357 0 6 9 12 16 17 16 16 17 16 14 15 15 15 14 11 9 7 7 7 7 6 357 322 261 236 230
223 228 232 231 235 242 252 257 267 281 283 298 325 336 342 350 355 0 4 9 13 13 13 14 14 14 15 16 17 15 12 11 10 7 4 5 4 1 357 339 287 259 246
225 231 233 238 243 248 252 255 264 273 278 284 295 309 323 336 346 353 358 2 7 7 8 8 8 9 12 13 14 12 11 11 9 6 4 1 360 359 355 337 311 282 267
228 235 241 245 248 251 253 253 258 262 268 274 283 292 309 325 340 351 355 357 359 2 2 0 1 4 6 7 8 7 6 6 5 3 1 358 356 351 345 332 316 299 279
231 240 245 249 253 254 254 247 245 249 253 260 268 280 299 321 334 346 351 354 355 356 356 355 356 357 359 0 360 359 0 0 359 356 355 351 346 342 338 328 317 306 293
234 241 246 251 256 256 248 237 240 243 247 253 260 277 289 305 324 338 348 351 352 353 353 351 350 350 353 355 356 356 355 354 351 349 347 343 336 331 327 322 312 304 294
239 239 244 253 255 249 240 238 240 244 249 251 256 265 276 290 308 325 336 340 342 347 350 349 348 347 350 353 353 353 352 350 347 344 340 336 329 322 314 310 307 304 296
240 240 242 249 250 245 238 240 242 245 246 249 253 258 268 281 293 307 323 329 334 341 342 343 345 346 347 348 347 348 347 344 341 339 335 329 325 318 309 303 299 296 294
240 241 243 246 245 240 241 240 242 240 239 246 253 258 265 275 285 301 311 317 323 329 333 338 339 339 340 341 340 340 339 338 336 335 333 327 322 316 309 302 297 292 290
234 232 236 241 242 239 239 236 238 239 241 248 251 259 262 264 278 294 301 307 312 317 325 331 332 333 334 333 332 333 332 332 332 331 329 326 322 316 311 305 299 293 289
240 238 243 249 246 241 241 239 240 241 244 250 252 257 257 266 279 292 301 305 310 315 318 320 322 324 325 326 326 327 328 327 327 327 326 323 320 316 311 307 304 298 292
242 244 248 250 245 242 244 242 242 250 252 254 254 257 262 272 281 291 299 304 307 310 311 314 316 318 320 321 321 321 322 322 322 322 321 319 317 314 310 307 303 299 295
246 246 247 249 244 241 244 244 247 255 258 257 256 262 268 277 286 293 297 301 305 308 310 312 314 315 317 317 317 318 317 317 317 317 317 316 314 311 308 305 303 300 296
248 249 249 248 244 244 247 249 250 255 256 258 260 265 272 279 284 291 297 299 302 306 309 311 312 313 315 315 315 314 313 313 313 313 313 312 311 309 307 305 303 301 298
251 252 251 248 245 246 249 252 254 255 258 263 268 273 278 281 283 288 295 299 301 302 305 308 310 312 313 313 312 311 311 311 310 310 310 310 309 307 305 304 302 300 298
254 255 253 247 245 247 250 254 255 258 261 266 271 277 280 283 285 289 294 296 299 302 304 306 308 310 311 311 310 310 309 309 309 310 310 309 307 306 305 303 301 300 298
254 253 251 248 248 251 255 257 259 262 266 271 276 282 283 283 287 291 294 297 299 301 303 304 306 308 308 309 309 309 308 308 309 309 308 307 306 304 304 303 302 300 298
254 252 250 250 252 255 258 260 263 267 269 274 279 282 285 287 290 293 295 297 298 299 301 303 304 305 306 307 308 307 307 307 308 307 306 305 305 304 303 303 302 301 299
254 252 252 254 256 260 263 264 267 269 272 275 279 283 287 290 292 294 295 296 297 299 300 301 302 303 304 306 307 306 306 306 306 305 304 304 304 304 303 303 302 300 298
257 255 257 258 260 263 267 268 270 272 274 277 280 283 287 290 291 293 294 295 296 297 298 299 301 302 303 304 305 306 306 305 305 304 304 304 304 303 302 302 301 300 299
262 260 261 262 263 266 269 271 271 273 276 279 282 284 287 289 292 293 294 295 295 295 296 298 300 301 302 304 304 305 305 304 304 304 304 304 303 303 302 302 301 299 299
264 265 264 265 266 268 270 272 274 275 278 280 282 285 286 289 291 292 294 294 294 296 297 298 300 301 302 303 304 304 303 303 303 303 304 303 303 302 302 302 300 299 298
266 267 268 267 267 270 272 274 276 278 279 281 283 285 286 288 290 291 293 294 295 296 298 299 300 301 302 303 303 303 303 303 304 304 304 303 303 302 302 302 300 300 298
267 269 270 271 272 273 274 276 278 279 280 282 283 285 287 289 290 291 292 293 294 296 298 299 300 301 301 302 303 303 303 303 304 304 304 304 303 303 303 302 301 300 298
270 271 272 273 274 276 276 278 279 280 282 283 284 285 287 289 291 292 293 294 295 296 297 298 299 300 301 302 303 303 303 304 304 304 305 305 304 304 303 302 301 300 298